Terminal Aerodrome Forecast
Issued by NWS Grand Junction, CO

Home | Current Version | Previous Version | Text Only | Print | Product List | Glossary On
Versions: 1 2 3 4 5 6 7 8 9 10 11 12 13 14 15 16 17 18 19 20 21 22 23 24 25 26 27 28 29 30 31 32 33 34 35 36
000
FTUS45 KGJT 041741
TAFGJT
TAF
KGJT 041741Z 0418/0518 14011KT P6SM FEW050 SCT100 BKN150
     FM042100 26010KT P6SM VCSH SCT080 BKN150
     FM050300 10010KT P6SM VCSH SCT080 BKN150
     FM050700 11012KT P6SM VCSH SCT080 BKN150
     FM051200 14008KT P6SM SCT100 BKN150=

USA.gov is the U.S. government's official web portal to all federal, state and local government web resources and services.